This demonstration page uses our WeatherBlox Daily Observations layout. Learn more.

Left ArrowRight Arrow

Hourly Observations for April 8, 2020

Temp ( °F °C ) Dew Point ( °F °C ) Humidity (%) Winds ( mph kmh ) Pressure ( in mb ) Visibility ( mi km ) Precip ( " mm )
12:52 am 00:52 Clear 52 11.1 42 5.6 69 69 Calm 29.73 1007 10 16 0.00 0.00
1:52 am 01:52 Clear 50 10 42 5.6 74 74 WNW 6 9 29.72 1007 10 16 0.00 0.00
2:52 am 02:52 Partly Cloudy 51 10.6 43 6.1 74 74 NNW 3 6 29.72 1006 10 16 0.00 0.00
3:52 am 03:52 Mostly Cloudy 50 10 44 6.7 80 80 Calm 29.70 1006 10 16 0.00 0.00
4:52 am 04:52 Cloudy 55 12.8 45 7.2 69 69 S 8 13 29.70 1006 10 16 0.00 0.00
5:52 am 05:52 Mostly Cloudy 53 11.7 44 6.7 72 72 SE 13 20 29.69 1006 10 16 0.00 0.00
6:52 am 06:52 Mostly Clear 54 12.2 42 5.6 64 64 SE 6 9 29.70 1006 10 16 0.00 0.00
7:52 am 07:52 Mostly Sunny 52 11.1 45 7.2 77 77 S 6 9 29.72 1006 9 14 0.00 0.00
8:52 am 08:52 Partly Cloudy 60 15.6 45 7.2 58 58 N 14 22 29.73 1007 10 16 0.00 0.00
9:52 am 09:52 Partly Cloudy 64 17.8 43 6.1 46 46 N 7 11 29.72 1007 10 16 0.00 0.00
10:52 am 10:52 Mostly Sunny 69 20.6 45 7.2 42 42 N 20 31 29.76 1008 10 16 0.00 0.00
11:52 am 11:52 Partly Cloudy 70 21.1 44 6.7 39 39 N 29 46 29.80 1009 7 11 0.00 0.00
12:52 pm 12:52 Partly Cloudy 72 22.2 40 4.4 31 31 N 24 39 29.82 1010 7 11 0.00 0.00
1:52 pm 13:52 Partly Cloudy 72 22.2 40 4.4 31 31 NNW 21 33 29.85 1011 10 16 0.00 0.00
2:52 pm 14:52 Partly Cloudy 66 18.9 40 4.4 39 39 N 24 39 29.88 1012 7 11 0.00 0.00
3:52 pm 15:52 Mostly Cloudy 59 15 35 1.7 41 41 NNW 28 44 29.92 1013 8 13 0.00 0.00
4:52 pm 16:52 Partly Cloudy 60 15.6 33 0.6 36 36 NNW 25 41 29.93 1014 10 16 0.00 0.00
5:52 pm 17:52 Partly Cloudy 61 16.1 36 2.2 39 39 NNW 20 31 29.93 1014 10 16 0.00 0.00
6:52 pm 18:52 Partly Cloudy 59 15 29 -1.7 32 32 N 20 31 29.94 1014 10 16 0.00 0.00
7:52 pm 19:52 Partly Cloudy 55 12.8 27 -2.8 34 34 NNW 21 33 29.97 1015 10 16 0.00 0.00
8:52 pm 20:52 Mostly Clear 50 10 27 -2.8 41 41 N 9 15 30.01 1016 10 16 0.00 0.00
9:52 pm 21:52 Mostly Clear 45 7.2 29 -1.7 54 54 N 7 11 30.03 1017 10 16 0.00 0.00
10:52 pm 22:52 Clear 43 6.1 29 -1.7 58 58 N 3 6 30.03 1017 10 16 0.00 0.00
11:52 pm 23:52 Clear 43 6.1 31 -0.6 63 63 NNE 3 6 30.03 1017 10 16 0.00 0.00

Powered by AerisWeather